Wind_Speed
3 2 0 2 4 7 18 9 5 4 1 1 11 9 11 10 8 2 2 10 6 6 7 6 7 8 11 12 12 11 10 9 8 7 6 4 3 3 4 2 2 3 3 4 4 5 6 6 7
4 3 2 2 3 5 14 11 10 1 5 3 7 10 7 5 7 6 5 9 10 8 8 6 8 10 12 14 13 13 11 11 10 9 8 7 5 4 4 2 1 1 1 2 2 3 4 4 4
2 3 2 2 2 6 3 9 10 3 5 6 6 7 8 13 6 4 4 8 8 8 7 5 6 11 13 14 15 14 13 12 12 10 10 9 8 6 4 4 3 2 1 1 1 1 2 2 2
2 3 3 4 0 3 8 13 7 10 8 8 12 14 13 6 8 10 6 5 7 4 3 5 7 11 13 14 15 15 14 13 13 11 11 10 10 9 6 6 6 5 3 3 3 3 3 3 4
3 5 7 5 2 3 4 6 2 9 10 14 13 12 10 7 12 10 10 11 11 10 7 7 8 10 13 15 15 15 15 14 14 13 13 12 11 11 9 8 9 8 7 6 5 5 5 5 6
6 7 8 7 2 0 1 3 4 7 11 11 13 14 15 12 12 8 11 12 12 14 12 10 11 10 12 15 16 16 16 16 15 14 14 14 14 12 11 10 11 11 11 10 9 8 8 8 8
9 10 12 10 7 6 5 4 5 4 8 9 11 16 19 16 14 11 10 12 12 13 15 14 13 12 13 15 17 17 18 18 17 16 17 16 16 15 14 13 13 14 14 14 13 13 12 12 11
11 12 15 12 8 10 10 8 7 7 8 11 13 10 12 11 11 13 15 13 13 13 15 16 15 14 15 16 18 19 19 20 19 18 18 18 16 16 16 15 16 17 18 18 17 17 17 16 15
12 13 16 12 9 14 15 16 12 11 11 13 14 14 17 17 13 12 14 15 14 15 16 17 17 16 16 17 18 19 20 20 20 19 18 17 17 17 17 18 20 20 21 21 21 21 20 20 20
14 18 14 12 13 19 22 23 22 20 14 15 19 24 25 22 17 17 17 14 15 16 17 21 19 17 17 17 19 19 20 19 19 18 17 17 17 18 19 20 20 21 22 24 24 24 24 23 22
21 22 21 21 24 25 24 26 27 27 26 21 25 24 25 24 20 19 16 14 14 14 17 21 20 18 18 17 19 19 19 18 17 16 16 16 17 18 18 19 20 22 24 26 26 26 26 26 25
22 23 26 26 27 28 27 28 30 27 27 28 29 31 33 29 23 19 17 17 17 18 15 20 21 20 19 19 19 19 19 17 16 16 16 16 16 17 18 19 23 25 24 24 24 25 27 26 27
24 27 26 27 28 29 30 29 29 27 20 21 26 30 32 32 29 24 21 17 17 17 16 20 21 21 22 21 21 19 17 16 16 16 16 16 16 17 18 19 21 23 23 21 20 21 22 24 27
26 25 25 24 25 27 28 27 24 21 21 24 24 29 28 33 35 32 24 17 16 15 16 18 21 23 25 24 23 20 18 17 17 17 17 17 17 18 17 17 18 19 21 21 19 19 19 21 23
26 29 26 23 18 17 22 27 23 21 20 21 16 16 22 25 26 34 29 22 16 16 17 21 20 22 26 29 25 23 21 19 19 18 18 18 17 17 18 16 18 17 18 18 17 17 18 19 20
28 29 30 23 19 18 21 24 19 15 18 19 15 13 18 21 24 22 24 21 18 19 21 21 24 23 26 32 26 24 23 22 21 20 20 18 17 17 19 19 18 17 16 17 16 15 16 18 19
25 25 25 24 14 14 16 22 16 14 14 15 18 17 18 21 22 20 22 23 23 21 22 25 22 20 20 21 21 22 24 24 23 22 23 21 20 20 20 22 20 18 16 17 16 15 14 17 19
19 18 18 17 15 16 18 21 20 19 20 21 18 21 19 19 21 23 25 21 23 25 25 24 20 12 12 17 19 19 21 25 26 25 25 25 24 24 24 24 22 21 20 19 17 16 15 15 19
19 20 21 18 11 21 20 22 25 24 24 27 28 25 22 23 25 26 29 25 23 24 27 26 19 18 14 12 12 13 9 13 20 25 28 29 29 28 26 26 24 23 22 21 20 17 16 16 18
17 16 14 13 7 15 18 27 25 24 23 25 27 32 32 31 30 29 32 32 24 24 29 27 23 23 22 19 16 13 11 11 13 18 23 27 30 31 30 28 26 25 24 22 21 19 18 18 20
14 15 8 13 12 16 25 29 19 18 20 25 25 24 25 32 37 40 39 32 28 25 28 28 25 26 24 21 18 14 17 13 14 15 18 24 28 30 31 32 29 27 26 23 22 20 19 19 20
16 8 9 13 16 14 13 8 17 19 19 17 17 17 18 21 21 21 21 29 26 27 30 29 27 28 27 26 21 16 14 14 18 21 24 28 30 30 31 33 33 30 27 25 24 22 22 21 22
18 9 14 17 21 20 20 12 2 6 11 19 25 25 24 23 21 19 16 20 21 27 29 28 28 27 25 19 13 13 17 20 22 22 23 25 29 33 34 34 33 32 30 29 27 25 24 24 24
12 13 18 17 16 7 16 15 4 8 9 11 12 18 19 16 14 15 15 14 9 12 18 21 17 15 15 11 13 15 17 22 23 23 24 25 28 28 31 34 35 34 32 31 29 28 27 26 26
12 13 2 3 3 5 6 7 11 8 8 8 10 12 12 14 13 9 8 8 6 1 4 6 7 9 12 13 16 21 25 29 26 27 24 24 27 28 27 28 32 33 34 34 33 31 30 30 30
24 19 10 6 4 3 6 6 7 13 14 13 11 10 11 11 10 12 12 15 14 13 12 20 13 16 13 15 20 25 27 33 32 33 32 31 31 33 31 28 28 32 34 35 37 35 33 32 31
30 25 25 17 3 4 6 3 14 17 14 12 12 12 13 13 13 14 16 18 16 15 18 23 27 29 32 28 22 31 36 39 41 40 39 35 34 34 33 31 31 33 36 36 37 38 36 34 33
36 24 17 18 4 5 6 10 12 25 19 16 14 14 13 14 15 18 17 12 9 15 18 21 23 26 29 26 26 30 33 35 37 39 37 36 36 37 34 33 33 32 36 38 38 38 37 36 35
23 29 21 21 18 5 3 6 18 26 22 19 16 15 13 14 16 15 16 18 21 23 29 29 29 27 24 26 27 29 29 30 31 32 34 36 37 38 36 34 34 36 32 35 37 36 36 37 36
23 31 39 22 13 14 12 5 16 27 26 26 20 13 12 10 10 13 18 22 24 29 32 29 29 23 24 25 29 27 25 27 30 33 36 39 41 43 44 38 35 33 33 33 34 36 36 36 35
Wind_Direction
147 161 241 32 71 60 48 34 19 170 308 210 157 165 208 226 233 253 237 208 204 187 186 179 207 219 220 220 214 209 200 195 191 192 185 170 168 135 102 66 57 55 50 35 16 12 25 31 33
142 158 179 166 137 88 59 57 29 342 256 310 137 152 187 265 233 256 300 222 205 201 189 194 216 226 222 225 221 218 212 208 203 204 204 195 196 191 153 203 224 63 59 55 19 357 3 10 19
158 178 182 205 150 97 26 344 329 203 247 281 281 298 294 302 236 259 192 210 233 213 193 212 229 231 228 229 226 223 223 222 219 214 216 215 213 215 201 227 237 236 220 178 182 288 316 326 327
220 225 215 234 161 89 354 325 294 207 226 259 279 289 297 295 306 308 307 266 251 259 247 251 252 239 234 236 233 231 231 231 228 228 228 228 230 233 228 240 250 251 252 249 238 229 247 271 289
230 242 244 247 97 70 3 345 282 202 230 255 275 283 294 286 311 316 300 314 304 296 285 284 278 263 238 240 240 238 238 236 236 236 238 240 242 241 243 247 255 257 257 255 256 250 241 251 268
250 249 256 261 181 214 44 83 159 199 224 240 264 274 284 296 303 278 294 308 301 296 287 286 285 272 243 240 242 243 245 244 245 243 243 246 251 251 252 256 261 263 263 262 258 257 255 247 250
270 266 263 271 281 226 203 178 210 200 209 232 262 277 281 289 298 271 258 273 267 283 279 281 282 271 245 240 240 243 246 251 248 249 249 251 254 258 260 265 270 270 267 265 261 260 256 253 249
258 269 273 274 271 254 234 224 214 264 276 255 262 294 289 294 291 282 268 253 259 277 272 275 277 268 250 242 240 242 246 248 252 255 256 259 261 265 269 272 272 272 272 268 264 262 259 257 252
255 256 266 274 267 261 247 231 232 245 271 280 284 276 277 283 282 274 267 262 269 285 276 270 270 268 252 243 241 242 245 248 254 257 260 262 265 267 270 273 275 275 274 272 269 263 260 257 257
256 258 267 266 253 251 252 253 257 247 245 266 279 278 279 278 277 277 278 278 267 272 278 274 260 261 254 246 246 244 247 249 253 258 261 264 268 274 278 280 282 282 279 276 272 267 262 259 257
255 255 257 255 261 261 266 265 268 277 273 273 268 275 282 283 275 272 275 278 268 265 279 267 257 254 256 250 248 246 248 250 255 259 261 263 270 278 282 285 288 288 286 282 277 271 265 261 256
258 261 262 265 268 271 271 272 277 281 285 284 281 276 274 279 280 274 267 267 272 278 276 268 261 257 254 250 250 246 248 252 253 254 257 265 271 279 287 292 295 293 291 286 281 274 269 263 258
263 263 263 270 273 275 280 285 290 280 292 292 284 276 275 271 273 274 267 258 259 256 260 261 262 262 259 253 250 250 250 251 248 252 262 268 274 280 287 294 293 296 294 290 284 279 273 267 260
268 266 269 265 270 274 281 282 281 292 281 270 270 272 270 269 269 271 269 261 262 270 266 270 269 264 258 252 250 249 245 245 246 251 258 267 273 280 288 294 294 294 295 298 292 286 281 271 267
274 278 274 273 287 281 272 276 280 284 273 264 257 272 279 275 273 270 274 267 252 260 257 268 270 275 272 254 249 248 244 244 247 252 257 265 272 284 295 298 294 294 296 295 294 289 283 275 269
275 276 281 287 280 282 273 279 274 273 281 266 250 245 260 271 275 285 278 278 255 260 260 275 281 285 271 251 247 250 249 249 254 256 260 268 278 285 291 295 292 293 296 295 294 290 286 282 278
265 267 277 285 280 256 262 282 287 259 273 289 245 242 262 261 260 276 282 277 267 266 261 273 282 311 270 251 253 255 258 259 261 262 267 275 280 284 289 291 290 291 294 294 293 289 283 279 273
275 286 283 281 288 262 270 273 288 290 268 272 269 262 260 257 261 270 274 278 267 263 259 262 276 302 284 260 263 268 265 261 265 269 271 275 280 284 290 291 291 292 293 294 292 288 277 266 265
265 269 274 281 275 295 278 290 291 296 291 278 272 270 267 263 266 267 266 268 257 258 253 255 272 279 274 272 272 272 267 269 271 275 277 279 281 282 286 288 287 286 287 290 292 291 284 271 261
253 265 272 285 290 297 300 292 298 298 290 286 281 273 270 268 271 271 277 281 264 255 247 249 255 262 265 265 271 284 264 264 275 281 277 275 276 276 277 279 281 281 282 283 285 287 282 274 269
234 252 279 294 304 286 296 300 315 304 295 287 282 280 280 277 272 270 269 275 259 251 245 253 261 266 269 268 275 261 268 273 278 276 275 272 270 269 270 271 273 273 273 274 274 276 275 269 264
249 228 275 283 273 294 304 289 312 304 291 285 283 284 281 289 279 286 284 265 263 248 244 253 260 264 271 276 270 267 266 272 269 268 274 276 273 271 267 266 267 267 265 266 266 265 267 264 263
259 257 264 273 273 285 287 274 293 286 258 283 288 284 283 289 288 287 300 291 270 253 244 245 252 262 276 282 298 282 274 272 278 278 279 279 277 271 266 263 262 262 260 260 259 257 256 257 257
264 234 256 266 275 270 267 227 221 261 271 294 279 274 275 281 289 291 296 287 262 242 236 239 258 272 276 286 281 281 280 279 280 283 282 282 282 280 274 267 261 260 258 257 256 255 254 251 252
210 225 244 297 225 229 140 207 234 263 275 260 240 251 262 270 267 268 258 265 314 239 203 222 235 257 270 287 293 292 294 290 285 285 283 283 284 288 288 275 264 257 258 258 257 255 252 250 249
224 220 194 212 214 255 203 233 224 217 216 225 226 235 246 256 273 284 298 287 269 272 263 264 261 285 292 298 303 292 284 284 289 290 287 282 281 281 284 285 271 259 257 256 257 255 254 253 252
225 220 229 245 263 307 231 192 168 182 199 213 236 247 257 265 275 283 285 274 270 283 284 286 286 297 308 292 294 303 297 298 295 290 289 289 285 282 284 285 281 266 255 255 257 257 255 253 253
229 236 211 216 162 223 239 207 200 193 196 202 220 227 236 256 270 280 280 289 294 312 321 321 313 300 299 295 290 287 287 288 286 288 295 299 299 297 290 282 278 276 264 257 255 255 252 252 251
210 220 220 227 228 181 188 243 212 205 198 199 203 219 244 270 282 291 291 300 312 314 318 314 311 311 299 295 313 311 303 301 301 301 299 297 295 292 287 281 275 274 274 264 260 257 253 251 251
230 235 216 210 212 221 241 270 174 195 199 211 222 232 245 265 281 288 293 299 302 304 307 304 307 303 299 304 318 311 308 308 305 299 294 291 289 292 292 285 274 270 277 269 266 260 254 250 248
Height
3169 3169 3170 3170 3176 3173 3171 3172 3170 3170 3171 3170 3171 3171 3172 3173 3174 3176 3171 3171 3173 3173 3174 3173 3175 3176 3178 3180 3181 3182 3182 3182 3183 3183 3183 3183 3183 3182 3182 3183 3183 3183 3182 3181 3180 3179 3179 3178 3178
3169 3169 3170 3170 3173 3173 3173 3173 3172 3171 3170 3170 3170 3171 3172 3172 3172 3172 3172 3171 3171 3173 3174 3175 3176 3176 3177 3179 3180 3181 3182 3182 3183 3183 3183 3183 3183 3183 3182 3183 3183 3183 3183 3182 3181 3180 3180 3180 3179
3169 3169 3170 3170 3171 3173 3174 3173 3173 3173 3172 3172 3171 3172 3172 3172 3172 3172 3172 3172 3172 3173 3173 3174 3175 3177 3177 3178 3180 3181 3181 3182 3182 3183 3183 3183 3183 3183 3183 3183 3183 3183 3183 3183 3182 3180 3180 3181 3180
3168 3170 3170 3170 3172 3173 3173 3171 3170 3170 3172 3172 3171 3171 3171 3170 3170 3171 3171 3171 3171 3171 3171 3173 3174 3175 3177 3177 3178 3180 3181 3181 3182 3182 3182 3182 3183 3183 3182 3182 3183 3183 3183 3182 3182 3181 3180 3180 3180
3167 3168 3168 3168 3171 3172 3172 3170 3169 3171 3171 3171 3170 3169 3168 3168 3169 3169 3170 3170 3170 3169 3170 3171 3173 3174 3175 3176 3177 3178 3179 3180 3181 3181 3181 3182 3181 3182 3182 3181 3182 3182 3182 3182 3182 3181 3180 3179 3179
3166 3167 3167 3168 3169 3170 3170 3169 3168 3168 3168 3169 3168 3167 3167 3167 3167 3167 3168 3168 3168 3168 3169 3170 3171 3172 3173 3175 3176 3176 3177 3178 3179 3180 3180 3180 3180 3181 3180 3180 3181 3181 3181 3181 3180 3180 3180 3178 3178
3165 3166 3165 3167 3167 3167 3168 3167 3167 3167 3166 3167 3165 3164 3165 3165 3165 3165 3165 3166 3166 3167 3167 3168 3169 3169 3171 3172 3174 3175 3175 3176 3177 3178 3178 3179 3179 3179 3179 3178 3179 3179 3179 3179 3179 3179 3178 3178 3177
3164 3165 3164 3164 3165 3165 3166 3165 3165 3165 3165 3164 3163 3163 3162 3163 3164 3163 3163 3164 3164 3164 3165 3165 3166 3167 3168 3170 3171 3172 3173 3174 3175 3175 3176 3177 3177 3177 3177 3177 3176 3176 3176 3176 3176 3176 3176 3176 3175
3162 3163 3161 3163 3164 3163 3163 3163 3163 3162 3162 3163 3161 3160 3160 3160 3161 3161 3162 3162 3162 3162 3163 3163 3164 3164 3165 3167 3168 3169 3170 3171 3172 3173 3174 3174 3175 3175 3175 3174 3174 3173 3172 3172 3172 3172 3172 3172 3172
3160 3160 3159 3160 3160 3159 3158 3158 3159 3161 3161 3160 3159 3157 3156 3156 3157 3158 3158 3159 3159 3160 3160 3161 3161 3162 3162 3163 3165 3165 3166 3167 3169 3171 3171 3172 3172 3172 3172 3171 3171 3170 3169 3168 3167 3167 3167 3168 3168
3155 3156 3157 3156 3154 3155 3156 3155 3155 3155 3158 3159 3155 3152 3151 3152 3153 3153 3154 3156 3157 3157 3157 3158 3159 3159 3159 3160 3160 3161 3162 3164 3166 3167 3168 3168 3169 3169 3169 3168 3167 3166 3164 3163 3162 3162 3162 3162 3163
3152 3153 3152 3152 3152 3151 3151 3150 3149 3152 3154 3151 3150 3149 3146 3146 3148 3148 3149 3151 3152 3153 3155 3155 3156 3157 3157 3157 3157 3158 3159 3161 3162 3163 3163 3164 3164 3164 3165 3164 3163 3161 3160 3158 3157 3156 3156 3157 3157
3147 3147 3149 3148 3148 3148 3147 3147 3147 3146 3148 3147 3145 3144 3142 3143 3144 3145 3145 3146 3148 3149 3150 3151 3152 3153 3154 3154 3154 3155 3156 3157 3158 3159 3159 3160 3160 3160 3160 3160 3159 3157 3155 3153 3152 3151 3151 3151 3151
3142 3143 3143 3144 3145 3144 3143 3142 3142 3144 3140 3137 3137 3137 3138 3137 3138 3139 3140 3142 3144 3145 3147 3148 3148 3149 3149 3150 3151 3152 3153 3153 3154 3155 3156 3156 3156 3156 3156 3155 3154 3153 3152 3149 3147 3146 3146 3145 3146
3139 3138 3139 3141 3141 3140 3138 3136 3137 3135 3134 3133 3133 3131 3131 3132 3132 3133 3136 3138 3141 3143 3143 3143 3144 3144 3145 3146 3147 3148 3149 3149 3150 3151 3152 3153 3153 3152 3152 3151 3150 3150 3148 3146 3145 3143 3142 3142 3141
3135 3135 3133 3136 3137 3138 3134 3129 3131 3131 3129 3129 3129 3127 3126 3127 3128 3130 3129 3133 3136 3137 3139 3139 3140 3140 3138 3139 3142 3144 3145 3145 3146 3147 3148 3148 3149 3148 3147 3146 3146 3145 3144 3143 3141 3139 3138 3138 3137
3129 3129 3130 3132 3134 3134 3131 3126 3126 3128 3126 3125 3123 3122 3122 3122 3123 3125 3124 3127 3129 3131 3133 3135 3135 3134 3134 3136 3139 3140 3142 3143 3143 3143 3144 3144 3144 3144 3143 3142 3142 3140 3140 3138 3137 3135 3134 3134 3133
3128 3127 3127 3128 3131 3128 3126 3124 3122 3123 3120 3121 3120 3119 3119 3118 3120 3121 3119 3122 3124 3126 3129 3130 3130 3131 3131 3133 3135 3136 3137 3138 3140 3139 3139 3139 3140 3140 3139 3138 3137 3137 3136 3135 3134 3133 3130 3129 3128
3125 3125 3122 3125 3127 3124 3123 3120 3118 3118 3117 3116 3115 3116 3116 3115 3116 3116 3114 3115 3118 3121 3125 3125 3127 3128 3129 3129 3129 3130 3129 3131 3133 3134 3134 3135 3135 3135 3134 3133 3133 3132 3131 3130 3131 3129 3129 3126 3124
3120 3120 3119 3120 3123 3122 3120 3116 3116 3114 3113 3112 3111 3110 3110 3111 3110 3111 3110 3110 3112 3115 3118 3120 3122 3122 3124 3125 3124 3124 3125 3126 3128 3129 3128 3127 3128 3128 3127 3127 3127 3127 3126 3125 3125 3125 3124 3123 3122
3116 3115 3116 3117 3118 3119 3115 3110 3112 3111 3109 3106 3105 3104 3104 3105 3106 3104 3103 3104 3104 3107 3113 3115 3117 3117 3117 3116 3116 3118 3120 3122 3123 3123 3122 3120 3120 3120 3120 3119 3119 3120 3120 3120 3120 3120 3119 3119 3117
3111 3113 3113 3113 3115 3115 3114 3108 3107 3106 3105 3103 3102 3102 3100 3100 3099 3097 3095 3097 3098 3101 3107 3110 3111 3112 3112 3111 3108 3111 3112 3114 3116 3116 3116 3114 3113 3112 3111 3110 3110 3111 3112 3113 3113 3113 3114 3113 3113
3107 3110 3111 3111 3110 3109 3110 3110 3102 3100 3100 3101 3100 3099 3097 3096 3094 3093 3092 3093 3094 3096 3099 3104 3106 3108 3108 3107 3105 3107 3109 3109 3109 3109 3108 3106 3104 3102 3102 3101 3101 3102 3103 3104 3105 3105 3106 3107 3107
3105 3107 3108 3107 3108 3104 3101 3104 3100 3098 3096 3097 3097 3097 3096 3095 3093 3093 3091 3090 3090 3092 3095 3100 3102 3102 3102 3102 3103 3103 3104 3103 3102 3101 3102 3100 3097 3094 3093 3093 3093 3094 3095 3096 3096 3097 3098 3099 3099
3100 3103 3106 3107 3106 3101 3097 3099 3095 3095 3094 3095 3094 3095 3095 3096 3095 3093 3092 3091 3092 3093 3093 3096 3097 3097 3098 3100 3099 3099 3099 3098 3096 3095 3094 3093 3092 3089 3086 3085 3084 3085 3086 3088 3089 3089 3089 3090 3091
3094 3098 3101 3104 3105 3099 3098 3093 3089 3089 3089 3090 3091 3093 3093 3094 3095 3093 3092 3092 3092 3093 3093 3094 3095 3095 3094 3094 3095 3095 3093 3092 3090 3088 3086 3085 3083 3082 3080 3078 3076 3076 3077 3078 3080 3081 3082 3083 3084
3090 3090 3097 3097 3097 3099 3094 3092 3091 3088 3088 3087 3087 3089 3092 3093 3092 3091 3092 3091 3090 3091 3091 3092 3091 3092 3093 3089 3090 3089 3087 3085 3083 3080 3077 3076 3075 3073 3072 3070 3068 3067 3067 3068 3070 3072 3073 3074 3075
3081 3089 3094 3094 3094 3096 3088 3085 3080 3084 3086 3085 3084 3085 3087 3089 3089 3090 3089 3089 3089 3089 3088 3088 3088 3088 3085 3083 3080 3079 3077 3074 3072 3070 3068 3067 3065 3064 3062 3061 3060 3058 3057 3058 3059 3061 3062 3064 3065
3075 3080 3086 3089 3087 3084 3085 3079 3078 3079 3084 3086 3085 3082 3082 3085 3086 3086 3086 3085 3084 3084 3084 3083 3081 3079 3077 3075 3073 3072 3069 3066 3064 3062 3060 3058 3056 3053 3052 3051 3050 3048 3048 3048 3049 3050 3052 3053 3055
3069 3071 3074 3076 3077 3078 3078 3078 3075 3076 3077 3080 3081 3080 3080 3081 3082 3081 3081 3080 3080 3079 3078 3077 3075 3074 3074 3071 3068 3066 3062 3059 3056 3052 3050 3048 3045 3042 3040 3039 3038 3038 3038 3037 3039 3041 3041 3043 3046